Weather History for KAVK - February, 2013

Change the Weather History Date:

Saturday, February 2, 2013

  Actual Average Record
Temperature  
Mean Temperature 42 °F -  
Max Temperature 60 °F 45 °F 78 °F (2003)
Min Temperature 23 °F 22 °F -7 °F (1951)
Degree Days  
Heating Degree Days 24    
Moisture  
Dew Point 24 °F    
Average Humidity 56    
Maximum Humidity 87    
Minimum Humidity 25    
Precipitation  
Precipitation 0.00 in - - ()
Sea Level Pressure  
Sea Level Pressure 30.25 in    
Wind  
Wind Speed 9 mph (NW)    
Max Wind Speed 16 mph    
Max Gust Speed 22 mph    
Visibility 10 miles    
Events      
Averages and records for this station are not official NWS values.
T = Trace of Precipitation, MM = Missing Value Source: NWS Daily Summary

Daily Weather History Graph

Daily Weather History Graph

Search for Another Location

Airport or City:

Trip Planner

Search our weather history database for the weather conditions in past years. The results will help you decide how hot, cold, wet, or windy it might be!

Date:

Astronomy

Feb. 02, 2013 Rise Set
Actual Time 7:35 AM CST 6:01 PM CST
Civil Twilight 7:08 AM CST 6:28 PM CST
Nautical Twilight 6:37 AM CST 6:59 PM CST
Astronomical Twilight 6:07 AM CST 7:30 PM CST
Moon No Moon Rise 10:59 AM CST (2/2)
Length of Visible Light 11h 20m
Length of Day
10h 25m
Waning Gibbous, 59% of the Moon is Illuminated
Feb 2
Waning Gibbous
Feb 3
Last Quarter
Feb 10
New
Feb 17
First Quarter
Feb 25
Full

Hourly Weather History & Observations

Time (CST) Temp. Windchill Dew Point Humidity Pressure Visibility Wind Dir Wind Speed Gust Speed Precip Events Conditions
12:10 AM 23.0 °F 14.7 °F 14.0 °F 68% 30.16 in 10.0 mi WSW 6.9 mph - N/A   Clear
12:30 AM 23.0 °F 14.7 °F 14.0 °F 68% 30.17 in 10.0 mi WSW 6.9 mph - N/A   Clear
12:50 AM 23.0 °F 13.1 °F 15.8 °F 74% 30.16 in 10.0 mi WSW 9.2 mph - N/A   Clear
1:10 AM 23.0 °F 14.7 °F 15.8 °F 74% 30.17 in 10.0 mi SW 6.9 mph - N/A   Clear
1:30 AM 24.8 °F 16.9 °F 15.8 °F 69% 30.17 in 10.0 mi West 6.9 mph - N/A   Clear
1:50 AM 24.8 °F 16.1 °F 15.8 °F 69% 30.18 in 10.0 mi NNW 8.1 mph - N/A   Clear
2:10 AM 23.0 °F 15.8 °F 15.8 °F 74% 30.18 in 10.0 mi NNW 5.8 mph - N/A   Clear
2:30 AM 23.0 °F 17.0 °F 15.8 °F 74% 30.18 in 10.0 mi WNW 4.6 mph - N/A   Clear
2:50 AM 23.0 °F 13.9 °F 15.8 °F 74% 30.18 in 10.0 mi WNW 8.1 mph - N/A   Clear
3:10 AM 23.0 °F 13.9 °F 15.8 °F 74% 30.18 in 10.0 mi WNW 8.1 mph - N/A   Clear
3:30 AM 26.6 °F 19.1 °F 17.6 °F 69% 30.19 in 10.0 mi WNW 6.9 mph - N/A   Clear
3:50 AM 24.8 °F 17.9 °F 17.6 °F 74% 30.19 in 10.0 mi West 5.8 mph - N/A   Clear
4:10 AM 24.8 °F 16.9 °F 17.6 °F 74% 30.19 in 10.0 mi WNW 6.9 mph - N/A   Clear
4:30 AM 24.8 °F 14.6 °F 17.6 °F 74% 30.19 in 10.0 mi WNW 10.4 mph - N/A   Clear
4:50 AM 26.6 °F 17.5 °F 19.4 °F 74% 30.20 in 10.0 mi NW 9.2 mph - N/A   Clear
5:10 AM 30.2 °F 22.6 °F 23.0 °F 75% 30.20 in 10.0 mi NNW 8.1 mph - N/A   Clear
5:30 AM 32.0 °F 22.1 °F 24.8 °F 75% 30.21 in 10.0 mi NNW 13.8 mph - N/A   Clear
5:50 AM 33.8 °F 25.3 °F 26.6 °F 75% 30.22 in 10.0 mi NNW 11.5 mph - N/A   Clear
6:10 AM 35.6 °F 27.1 °F 28.4 °F 75% 30.22 in 10.0 mi NNW 12.7 mph - N/A   Clear
6:30 AM 35.6 °F 27.1 °F 28.4 °F 75% 30.23 in 10.0 mi NNW 12.7 mph - N/A   Clear
6:50 AM 33.8 °F 25.8 °F 28.4 °F 81% 30.24 in 10.0 mi NW 10.4 mph - N/A   Clear
7:10 AM 33.8 °F 25.8 °F 28.4 °F 81% 30.24 in 10.0 mi NW 10.4 mph - N/A   Clear
7:30 AM 32.0 °F 24.8 °F 28.4 °F 87% 30.25 in 10.0 mi NW 8.1 mph - N/A   Clear
7:50 AM 32.0 °F 26.4 °F 28.4 °F 87% 30.26 in 10.0 mi West 5.8 mph - N/A   Clear
8:10 AM 32.0 °F 25.6 °F 28.4 °F 87% 30.27 in 10.0 mi NW 6.9 mph - N/A   Clear
8:30 AM 35.6 °F 28.6 °F 32.0 °F 87% 30.27 in 10.0 mi NW 9.2 mph - N/A   Clear
8:50 AM 37.4 °F 30.3 °F 32.0 °F 81% 30.29 in 10.0 mi NW 10.4 mph - N/A   Clear
9:10 AM 39.2 °F 31.2 °F 32.0 °F 75% 30.30 in 10.0 mi NNW 13.8 mph 18.4 mph N/A   Clear
9:30 AM 41.0 °F 34.3 °F 32.0 °F 70% 30.31 in 10.0 mi NNW 11.5 mph - N/A   Clear
9:50 AM 44.6 °F 38.4 °F 32.0 °F 61% 30.32 in 10.0 mi NNW 12.7 mph - N/A   Clear
10:10 AM 46.4 °F 40.4 °F 32.0 °F 57% 30.32 in 10.0 mi NNW 13.8 mph - N/A   Clear
10:30 AM 46.4 °F 40.4 °F 32.0 °F 57% 30.32 in 10.0 mi NNW 13.8 mph - N/A   Clear
10:50 AM 48.2 °F - 32.0 °F 54% 30.32 in 10.0 mi NW 12.7 mph - N/A   Clear
11:10 AM 50.0 °F - 32.0 °F 50% 30.32 in 10.0 mi WNW 12.7 mph - N/A   Clear
11:30 AM 53.6 °F - 32.0 °F 44% 30.32 in 10.0 mi NW 13.8 mph - N/A   Clear
11:50 AM 53.6 °F - 32.0 °F 44% 30.31 in 10.0 mi NW 10.4 mph 18.4 mph N/A   Clear
12:10 PM 53.6 °F - 32.0 °F 44% 30.30 in 10.0 mi NW 16.1 mph 19.6 mph N/A   Clear
12:30 PM 55.4 °F - 30.2 °F 38% 30.29 in 10.0 mi NNW 11.5 mph 19.6 mph N/A   Clear
12:50 PM 57.2 °F - 30.2 °F 36% 30.28 in 10.0 mi NNW 15.0 mph 20.7 mph N/A   Clear
1:10 PM 57.2 °F - 28.4 °F 33% 30.27 in 10.0 mi NNW 13.8 mph 19.6 mph N/A   Clear
1:30 PM 57.2 °F - 28.4 °F 33% 30.26 in 10.0 mi NNW 12.7 mph 20.7 mph N/A   Clear
1:50 PM 59.0 °F - 26.6 °F 29% 30.26 in 10.0 mi North 11.5 mph 21.9 mph N/A   Clear
2:10 PM 59.0 °F - 26.6 °F 29% 30.25 in 10.0 mi NNW 11.5 mph - N/A   Clear
2:30 PM 59.0 °F - 24.8 °F 27% 30.25 in 10.0 mi NNW 11.5 mph 18.4 mph N/A   Clear
2:50 PM 59.0 °F - 24.8 °F 27% 30.25 in 10.0 mi NNW 15.0 mph 21.9 mph N/A   Clear
3:10 PM 60.8 °F - 24.8 °F 25% 30.26 in 10.0 mi WNW 15.0 mph 19.6 mph N/A   Clear
3:30 PM 59.0 °F - 23.0 °F 25% 30.25 in 10.0 mi NW 12.7 mph 19.6 mph N/A   Clear
3:50 PM 59.0 °F - 23.0 °F 25% 30.25 in 10.0 mi NW 15.0 mph 20.7 mph N/A   Clear
4:10 PM 59.0 °F - 23.0 °F 25% 30.26 in 10.0 mi NNW 10.4 mph 18.4 mph N/A   Clear
4:30 PM 59.0 °F - 23.0 °F 25% 30.26 in 10.0 mi NW 11.5 mph - N/A   Clear
4:50 PM 59.0 °F - 23.0 °F 25% 30.26 in 10.0 mi NW 11.5 mph - N/A   Clear
5:30 PM 53.6 °F - 23.0 °F 30% 30.26 in 10.0 mi NW 6.9 mph - N/A   Clear
6:10 PM 51.8 °F - 19.4 °F 28% 30.26 in 10.0 mi NW 8.1 mph - N/A   Clear
6:50 PM 50.0 °F - 21.2 °F 32% 30.27 in 10.0 mi NW 5.8 mph - N/A   Scattered Clouds
7:10 PM 46.4 °F 42.9 °F 21.2 °F 37% 30.27 in 10.0 mi WNW 6.9 mph - N/A   Partly Cloudy
7:30 PM 46.4 °F 43.5 °F 19.4 °F 34% 30.27 in 10.0 mi WSW 5.8 mph - N/A   Partly Cloudy
7:50 PM 37.4 °F 32.8 °F 19.4 °F 48% 30.28 in 10.0 mi West 5.8 mph - N/A   Scattered Clouds
8:10 PM 39.2 °F 35.0 °F 19.4 °F 45% 30.28 in 10.0 mi West 5.8 mph - N/A   Mostly Cloudy
8:50 PM 35.6 °F 29.2 °F 19.4 °F 52% 30.28 in 10.0 mi WSW 8.1 mph - N/A   Overcast
9:10 PM 35.6 °F 29.9 °F 19.4 °F 52% 30.28 in 10.0 mi West 6.9 mph - N/A   Overcast
9:30 PM 37.4 °F 32.1 °F 19.4 °F 48% 30.28 in 10.0 mi West 6.9 mph - N/A   Overcast
9:50 PM 35.6 °F 28.6 °F 19.4 °F 52% 30.29 in 10.0 mi WSW 9.2 mph - N/A   Overcast
10:10 PM 35.6 °F 29.2 °F 19.4 °F 52% 30.28 in 9.0 mi West 8.1 mph - N/A   Overcast
10:30 PM 33.8 °F 26.4 °F 19.4 °F 56% 30.29 in 10.0 mi West 9.2 mph - N/A   Mostly Cloudy
10:50 PM 35.6 °F 29.2 °F 21.2 °F 56% 30.29 in 10.0 mi West 8.1 mph - N/A   Mostly Cloudy
11:10 PM 33.8 °F 27.7 °F 19.4 °F 56% 30.29 in 10.0 mi WNW 6.9 mph - N/A   Mostly Cloudy
11:30 PM 35.6 °F 29.2 °F 21.2 °F 56% 30.29 in 10.0 mi NW 8.1 mph - N/A   Partly Cloudy
11:50 PM 35.6 °F 30.7 °F 21.2 °F 56% 30.30 in 10.0 mi NNW 5.8 mph - N/A   Clear